2024/01/24 00:00:00, 0.1,-6.6
2024/01/24 00:10:00, 0.1,-6.6
2024/01/24 00:20:00, 0.1,-6.8
2024/01/24 00:30:00, 0.2,-6.9
2024/01/24 00:40:00, 0.1,-6.6
2024/01/24 00:50:00, 0.1,-6.6
2024/01/24 01:00:00, 0.1,-6.7
2024/01/24 01:10:00, 0.1,-6.8
2024/01/24 01:20:00, 0.1,-6.7
2024/01/24 01:30:00, 0.1,-6.9
2024/01/24 01:40:00, 0.1,-6.9
2024/01/24 01:50:00, 0.3,-6.9
2024/01/24 02:00:00, 0.3,-7.0
2024/01/24 02:10:00, 0.3,-6.9
2024/01/24 02:20:00, 0.3,-7.0
2024/01/24 02:30:00, 0.1,-6.5
2024/01/24 02:40:00, 0.2,-6.3
2024/01/24 02:50:00, 0.2,-6.7
2024/01/24 03:00:00, 0.2,-6.5
2024/01/24 03:10:00, 0.2,-6.2
2024/01/24 03:20:00, 0.3,-6.4
2024/01/24 03:30:00, 0.3,-6.7
2024/01/24 03:40:00, 0.2,-6.6
2024/01/24 03:50:00, 0.2,-6.7
2024/01/24 04:00:00, 0.3,-6.5
2024/01/24 04:10:00, 0.3,-6.6
2024/01/24 04:20:00, 0.3,-6.8
2024/01/24 04:30:00, 0.3,-6.6
2024/01/24 04:40:00, 0.3,-6.6
2024/01/24 04:50:00, 0.3,-6.6
2024/01/24 05:00:00, 0.3,-6.4
2024/01/24 05:10:00, 0.5,-6.6
2024/01/24 05:20:00, 0.7,-6.4
2024/01/24 05:30:00, 1.1,-6.8
2024/01/24 05:40:00, 1.4,-6.6
2024/01/24 05:50:00, 1.9,-7.1
2024/01/24 06:00:00, 2.3,-6.9
2024/01/24 06:10:00, 2.3,-6.7
2024/01/24 06:20:00, 2.4,-7.3
2024/01/24 06:30:00, 2.5,-6.9
2024/01/24 06:40:00, 2.9,-6.9
2024/01/24 06:50:00, 3.1,-6.6
2024/01/24 07:00:00, 3.4,-7.2
2024/01/24 07:10:00, 3.7,-7.0
2024/01/24 07:20:00, 4.3,-6.8
2024/01/24 07:30:00, 5.1,-6.6
2024/01/24 07:40:00, 5.9,-6.8
2024/01/24 07:50:00, 6.0,-6.8
2024/01/24 08:00:00, 6.5,-6.9
2024/01/24 08:10:00, 7.2,-6.6
2024/01/24 08:20:00, 8.1,-6.3
2024/01/24 08:30:00, 8.5,-6.3
2024/01/24 08:40:00, 8.7,-6.2
2024/01/24 08:50:00, 9.3,-5.9
2024/01/24 09:00:00,10.2,-6.2
2024/01/24 09:10:00,11.3,-6.1
2024/01/24 09:20:00,11.8,-5.8
2024/01/24 09:30:00,12.9,-5.8
2024/01/24 09:40:00,13.7,-5.8
2024/01/24 09:50:00,14.1,-5.6
2024/01/24 10:00:00,14.8,-5.4
2024/01/24 10:10:00,15.4,-6.1
2024/01/24 10:20:00,15.9,-5.6
2024/01/24 10:30:00,15.9,-5.1
2024/01/24 10:40:00,16.6,-4.9
2024/01/24 10:50:00,16.8,-5.3
2024/01/24 11:00:00,17.4,-5.4
2024/01/24 11:10:00,17.8,-5.4
2024/01/24 11:20:00,18.6,-5.3
2024/01/24 11:30:00,19.0,-4.8
2024/01/24 11:40:00,19.3,-5.4
2024/01/24 11:50:00,20.2,-5.2
2024/01/24 12:00:00,21.3,-5.1
2024/01/24 12:10:00,22.7,-5.1
2024/01/24 12:20:00,23.4,-5.2
2024/01/24 12:30:00,24.3,-4.9
2024/01/24 12:40:00,25.3,-5.1
2024/01/24 12:50:00,26.1,-5.5
2024/01/24 13:00:00,26.4,-5.0
2024/01/24 13:10:00,26.6,-4.8
2024/01/24 13:20:00,26.6,-5.3
2024/01/24 13:30:00,26.6,-5.2
2024/01/24 13:40:00,26.7,-5.9
2024/01/24 13:50:00,27.5,-5.7
2024/01/24 14:00:00,28.5,-5.4
2024/01/24 14:10:00,28.9,-5.5
2024/01/24 14:20:00,29.9,-5.8
2024/01/24 14:30:00,31.2,-5.6
2024/01/24 14:40:00,33.0,-5.5
2024/01/24 14:50:00,34.3,-5.5
2024/01/24 15:00:00,35.2,-5.7
2024/01/24 15:10:00,36.4,-5.5
2024/01/24 15:20:00,37.7,-5.6
2024/01/24 15:30:00,38.8,-5.7
2024/01/24 15:40:00,40.6,-5.8
2024/01/24 15:50:00,42.1,-6.1
2024/01/24 16:00:00,44.2,-6.0
2024/01/24 16:10:00,46.4,-5.8
2024/01/24 16:20:00,47.9,-5.7
2024/01/24 16:30:00,49.4,-6.2
2024/01/24 16:40:00,50.1,-5.6
2024/01/24 16:50:00,50.2,-5.9
2024/01/24 17:00:00,50.7,-5.9
2024/01/24 17:10:00,51.1,-5.8
2024/01/24 17:20:00,51.7,-6.5
2024/01/24 17:30:00,52.6,-5.6
2024/01/24 17:40:00,53.7,-6.0
2024/01/24 17:50:00,54.6,-5.9
2024/01/24 18:00:00,55.2,-5.7
2024/01/24 18:10:00,55.3,-5.5
2024/01/24 18:20:00,55.8,-5.6
2024/01/24 18:30:00,55.9,-5.6
2024/01/24 18:40:00,56.3,-5.5
2024/01/24 18:50:00,57.6,-5.4
2024/01/24 19:00:00,58.5,-5.6
2024/01/24 19:10:00,59.1,-5.5
2024/01/24 19:20:00,59.5,-5.5
2024/01/24 19:30:00,59.6,-5.3
2024/01/24 19:40:00,60.0,-5.4
2024/01/24 19:50:00,59.9,-5.5
2024/01/24 20:00:00,60.5,-5.2
2024/01/24 20:10:00,60.8,-5.4
2024/01/24 20:20:00,60.9,-5.3
2024/01/24 20:30:00,61.3,-5.2
2024/01/24 20:40:00,61.5,-5.2
2024/01/24 20:50:00,61.4,-5.1
2024/01/24 21:00:00,61.9,-5.1
2024/01/24 21:10:00,62.6,-5.2
2024/01/24 21:20:00,62.7,-5.0
2024/01/24 21:30:00,62.9,-5.2
2024/01/24 21:40:00,63.0,-5.1
2024/01/24 21:50:00,63.3,-5.1
2024/01/24 22:00:00,63.6,-5.2
2024/01/24 22:10:00,63.8,-5.2
2024/01/24 22:20:00,64.0,-5.0
2024/01/24 22:30:00,64.0,-5.2
2024/01/24 22:40:00,64.0,-5.0
2024/01/24 22:50:00,63.9,-5.0
2024/01/24 23:00:00,63.9,-5.0
2024/01/24 23:10:00,63.8,-5.0
2024/01/24 23:20:00,64.1,-5.0
2024/01/24 23:30:00,64.4,-5.0
2024/01/24 23:40:00,64.2,-5.0
2024/01/24 23:50:00,64.2,-5.0
